Location: Wildlife_Club
(35.6000°N, 81.4330°W)
Time: 04:26:00
(UTC-04:00)

A-11 Canister half - Pass Details

Date: 20 August 2020
Orbit: 1514 x 1686 km, 47.2° (Epoch: 23 September)

Event Time Altitude Azimuth Distance (km) Brightness Sun altitude
Rises 21:06:43 0° 301° (WNW) 4,776 13.7 -12.0°
Reaches altitude 10° 21:09:52 10° 305° (NW) 3,814 12.5 -12.6°
Maximum altitude 21:19:29 59° 24° (NNE) 1,855 9.4 -14.4°
Enters shadow 21:27:21 18° 99° (E) 3,329 10.2 -15.8°
